Year,Month,Day,Hour,Minute,Value (Times are PST for temperature in C)
2009,08,22,08,35,14.20
2009,08,22,08,36,14.20
2009,08,22,08,37,14.20
2009,08,22,08,38,14.20
2009,08,22,08,39,14.30
2009,08,22,08,40,14.40
2009,08,22,08,41,14.50
2009,08,22,08,42,14.50
2009,08,22,08,43,14.60
2009,08,22,08,44,14.70
2009,08,22,08,45,14.70
2009,08,22,08,46,14.80
2009,08,22,08,47,14.80
2009,08,22,08,48,14.90
2009,08,22,08,49,14.90
2009,08,22,08,50,14.90
2009,08,22,08,51,15.00
2009,08,22,08,52,15.00
2009,08,22,08,53,15.00
2009,08,22,08,54,15.00
2009,08,22,08,55,15.00
2009,08,22,08,56,15.10
2009,08,22,08,57,15.10
2009,08,22,08,58,15.10
2009,08,22,08,59,15.10
2009,08,22,09,00,15.10
2009,08,22,09,01,15.10
2009,08,22,09,02,15.10
2009,08,22,09,03,15.10
2009,08,22,09,04,15.10
2009,08,22,09,05,15.20
2009,08,22,09,06,15.20
2009,08,22,09,07,15.20
2009,08,22,09,08,15.20
2009,08,22,09,09,15.30
2009,08,22,09,10,15.30
2009,08,22,09,11,15.30
2009,08,22,09,12,15.30
2009,08,22,09,13,15.30
2009,08,22,09,14,15.30
2009,08,22,09,15,15.30
2009,08,22,09,16,15.30
2009,08,22,09,17,15.30
2009,08,22,09,18,15.30
2009,08,22,09,19,15.30
2009,08,22,09,20,15.30
2009,08,22,09,21,15.40
2009,08,22,09,22,15.40
2009,08,22,09,23,15.50
2009,08,22,09,24,15.50
2009,08,22,09,25,15.60
2009,08,22,09,26,15.70
2009,08,22,09,27,15.70
2009,08,22,09,28,15.70
2009,08,22,09,29,15.70
2009,08,22,09,30,15.70
2009,08,22,09,31,15.80
2009,08,22,09,32,15.80
2009,08,22,09,33,16.00
2009,08,22,09,34,16.10
2009,08,22,09,35,16.10
2009,08,22,09,36,16.10
2009,08,22,09,37,16.10
2009,08,22,09,38,16.10
2009,08,22,09,39,16.10
2009,08,22,09,40,16.20
2009,08,22,09,41,16.20
2009,08,22,09,42,16.30
2009,08,22,09,43,16.30
2009,08,22,09,44,16.30
2009,08,22,09,45,16.40
2009,08,22,09,46,16.40
2009,08,22,09,47,16.40
2009,08,22,09,48,16.40
2009,08,22,09,49,16.40
2009,08,22,09,50,16.40
2009,08,22,09,51,16.40
2009,08,22,09,52,16.40
2009,08,22,09,53,16.40
2009,08,22,09,54,16.40
2009,08,22,09,55,16.40
2009,08,22,09,56,16.40
2009,08,22,09,57,16.40
2009,08,22,09,58,16.50
2009,08,22,09,59,16.60
2009,08,22,10,00,16.60
2009,08,22,10,01,16.70
2009,08,22,10,02,16.70
2009,08,22,10,03,16.70
2009,08,22,10,04,16.90
2009,08,22,10,05,16.90
2009,08,22,10,06,17.00
2009,08,22,10,07,17.20
2009,08,22,10,08,17.30
2009,08,22,10,09,17.30
2009,08,22,10,10,17.30
2009,08,22,10,11,17.40
2009,08,22,10,12,17.50
2009,08,22,10,13,17.60
2009,08,22,10,14,17.60
2009,08,22,10,15,17.60
2009,08,22,10,16,17.60
2009,08,22,10,17,17.60
2009,08,22,10,18,17.60
2009,08,22,10,19,17.60
2009,08,22,10,20,17.60
2009,08,22,10,21,17.60
2009,08,22,10,22,17.60
2009,08,22,10,23,17.60
2009,08,22,10,24,17.60
2009,08,22,10,25,17.70
2009,08,22,10,26,17.70
2009,08,22,10,27,17.80
2009,08,22,10,28,17.80
2009,08,22,10,29,17.80
2009,08,22,10,30,17.80
2009,08,22,10,31,17.80
2009,08,22,10,32,17.80
2009,08,22,10,33,17.80
2009,08,22,10,34,17.80
2009,08,22,10,35,17.80
2009,08,22,10,36,17.70
2009,08,22,10,37,17.70
2009,08,22,10,38,17.70
2009,08,22,10,39,17.70
2009,08,22,10,40,17.70
2009,08,22,10,41,17.60
2009,08,22,10,42,17.50
2009,08,22,10,43,17.40
2009,08,22,10,44,17.40
2009,08,22,10,45,17.50
2009,08,22,10,46,17.60
2009,08,22,10,47,17.50
2009,08,22,10,48,17.30
2009,08,22,10,49,17.10
2009,08,22,10,50,16.90
2009,08,22,10,51,16.80
2009,08,22,10,52,16.70
2009,08,22,10,53,16.70
2009,08,22,10,54,16.70
2009,08,22,10,55,16.80
2009,08,22,10,56,16.70
2009,08,22,10,57,16.70
2009,08,22,10,58,16.70
2009,08,22,10,59,16.90
2009,08,22,11,00,16.90
2009,08,22,11,01,16.90
2009,08,22,11,02,16.90
2009,08,22,11,03,16.90
2009,08,22,11,04,17.00
2009,08,22,11,05,17.00
2009,08,22,11,06,17.00
2009,08,22,11,07,17.10
2009,08,22,11,08,17.20
2009,08,22,11,09,17.30
2009,08,22,11,10,17.30
2009,08,22,11,11,17.30
2009,08,22,11,12,17.20
2009,08,22,11,13,17.20
2009,08,22,11,14,17.10
2009,08,22,11,15,16.90
2009,08,22,11,16,16.90
2009,08,22,11,17,16.80
2009,08,22,11,18,16.70
2009,08,22,11,19,16.80
2009,08,22,11,20,16.80
2009,08,22,11,21,16.80
2009,08,22,11,22,16.80
2009,08,22,11,23,16.80
2009,08,22,11,24,16.70
2009,08,22,11,25,16.70
2009,08,22,11,26,16.60
2009,08,22,11,27,16.60
2009,08,22,11,28,16.40
2009,08,22,11,29,16.40
2009,08,22,11,30,16.50
2009,08,22,11,31,16.60
2009,08,22,11,32,16.70
2009,08,22,11,33,16.70
2009,08,22,11,34,16.80
2009,08,22,11,35,16.90
2009,08,22,11,36,16.90
2009,08,22,11,37,17.00
2009,08,22,11,38,17.00
2009,08,22,11,39,17.20
2009,08,22,11,40,17.30
2009,08,22,11,41,17.40
2009,08,22,11,42,17.40
2009,08,22,11,43,17.30
2009,08,22,11,44,17.40
2009,08,22,11,45,17.50
2009,08,22,11,46,17.70
2009,08,22,11,47,17.80
2009,08,22,11,48,17.80
2009,08,22,11,49,17.90
2009,08,22,11,50,17.90
2009,08,22,11,51,18.00
2009,08,22,11,52,18.10
2009,08,22,11,53,18.00
2009,08,22,11,54,17.90
2009,08,22,11,55,17.80
2009,08,22,11,56,17.80
2009,08,22,11,57,17.90
2009,08,22,11,58,17.90
2009,08,22,11,59,17.90
2009,08,22,12,00,17.90
2009,08,22,12,01,17.90
2009,08,22,12,02,17.90
2009,08,22,12,03,17.90
2009,08,22,12,04,17.80
2009,08,22,12,05,17.70
2009,08,22,12,06,17.60
2009,08,22,12,07,17.50
2009,08,22,12,08,17.50
2009,08,22,12,09,17.50
2009,08,22,12,10,17.50
2009,08,22,12,11,17.60
2009,08,22,12,12,17.70
2009,08,22,12,13,17.70
2009,08,22,12,14,17.70
2009,08,22,12,15,17.70
2009,08,22,12,16,17.70
2009,08,22,12,17,17.80
2009,08,22,12,18,17.90
2009,08,22,12,19,17.90
2009,08,22,12,20,17.90
2009,08,22,12,21,18.00
2009,08,22,12,22,18.10
2009,08,22,12,23,18.10
2009,08,22,12,24,17.90
2009,08,22,12,25,18.00
2009,08,22,12,26,18.10
2009,08,22,12,27,18.10
2009,08,22,12,28,18.20
2009,08,22,12,29,18.30
2009,08,22,12,30,18.50
2009,08,22,12,31,18.60
2009,08,22,12,32,18.50
2009,08,22,12,33,18.50
2009,08,22,12,34,18.50
2009,08,22,12,35,18.60
2009,08,22,12,36,18.60
2009,08,22,12,37,18.60
2009,08,22,12,38,18.60
2009,08,22,12,39,18.60
2009,08,22,12,40,18.50
2009,08,22,12,41,18.50
2009,08,22,12,42,18.50
2009,08,22,12,43,18.50
2009,08,22,12,44,18.40
2009,08,22,12,45,18.40
2009,08,22,12,46,18.40
2009,08,22,12,47,18.40
2009,08,22,12,48,18.50
2009,08,22,12,49,18.40
2009,08,22,12,50,18.40
2009,08,22,12,51,18.20
2009,08,22,12,52,18.20
2009,08,22,12,53,18.30
2009,08,22,12,54,18.40
2009,08,22,12,55,18.50
2009,08,22,12,56,18.60
2009,08,22,12,57,18.80
2009,08,22,12,58,18.90
2009,08,22,12,59,18.80
2009,08,22,13,00,18.70
2009,08,22,13,01,18.70
2009,08,22,13,02,18.70
2009,08,22,13,03,18.80
2009,08,22,13,04,18.80
2009,08,22,13,05,18.70
2009,08,22,13,06,18.70
2009,08,22,13,07,18.70
2009,08,22,13,08,18.60
2009,08,22,13,09,18.60
2009,08,22,13,10,18.60
2009,08,22,13,11,18.60
2009,08,22,13,12,18.40
2009,08,22,13,13,18.30
2009,08,22,13,14,18.40
2009,08,22,13,15,18.40
2009,08,22,13,16,18.50
2009,08,22,13,17,18.60
2009,08,22,13,18,18.60
2009,08,22,13,19,18.60
2009,08,22,13,20,18.50
2009,08,22,13,21,18.60
2009,08,22,13,22,18.60
2009,08,22,13,23,18.70
2009,08,22,13,24,18.70
2009,08,22,13,25,18.70
2009,08,22,13,26,18.70
2009,08,22,13,27,18.80
2009,08,22,13,28,18.80
2009,08,22,13,29,18.70
2009,08,22,13,30,18.70
2009,08,22,13,31,18.80
2009,08,22,13,32,18.80
2009,08,22,13,33,18.90
2009,08,22,13,34,18.90
2009,08,22,13,35,18.90
2009,08,22,13,36,18.80
2009,08,22,13,37,18.70
2009,08,22,13,38,18.60
2009,08,22,13,39,18.60
2009,08,22,13,40,18.60
2009,08,22,13,41,18.60
2009,08,22,13,42,18.60
2009,08,22,13,43,18.60
2009,08,22,13,44,18.60
2009,08,22,13,45,18.50
2009,08,22,13,46,18.40
2009,08,22,13,47,18.40
2009,08,22,13,48,18.50
2009,08,22,13,49,18.50
2009,08,22,13,50,18.60
2009,08,22,13,51,18.70
2009,08,22,13,52,18.80
2009,08,22,13,53,18.80
2009,08,22,13,54,18.90
2009,08,22,13,55,18.90
2009,08,22,13,56,18.90
2009,08,22,13,57,18.90
2009,08,22,13,58,18.90
2009,08,22,13,59,18.90
2009,08,22,14,00,18.90
2009,08,22,14,01,18.90
2009,08,22,14,02,19.00
2009,08,22,14,03,19.10
2009,08,22,14,04,19.10
2009,08,22,14,05,19.10
2009,08,22,14,06,19.20
2009,08,22,14,07,19.10
2009,08,22,14,08,19.10
2009,08,22,14,09,19.00
2009,08,22,14,10,18.90
2009,08,22,14,11,18.80
2009,08,22,14,12,18.90
2009,08,22,14,13,19.00
2009,08,22,14,14,19.10
2009,08,22,14,15,19.10
2009,08,22,14,16,19.10
2009,08,22,14,17,19.10
2009,08,22,14,18,19.10
2009,08,22,14,19,19.10
2009,08,22,14,20,19.10
2009,08,22,14,21,19.10
2009,08,22,14,22,18.90
2009,08,22,14,23,18.90
2009,08,22,14,24,18.90
2009,08,22,14,25,18.90
2009,08,22,14,26,18.90
2009,08,22,14,27,18.90
2009,08,22,14,28,18.90
2009,08,22,14,29,18.90
2009,08,22,14,30,18.80
2009,08,22,14,31,18.80
2009,08,22,14,32,18.80
2009,08,22,14,33,18.80
2009,08,22,14,34,18.80
2009,08,22,14,35,18.80
2009,08,22,14,36,18.80
2009,08,22,14,37,18.60
2009,08,22,14,38,18.50
2009,08,22,14,39,18.50
2009,08,22,14,40,18.50
2009,08,22,14,41,18.50
2009,08,22,14,42,18.60
2009,08,22,14,43,18.50
2009,08,22,14,44,18.50
2009,08,22,14,45,18.60
2009,08,22,14,46,18.60
2009,08,22,14,47,18.60
2009,08,22,14,48,18.50
2009,08,22,14,49,18.60
2009,08,22,14,50,18.60
2009,08,22,14,51,18.70
2009,08,22,14,52,18.70
2009,08,22,14,53,18.60
2009,08,22,14,54,18.50
2009,08,22,14,55,18.30
2009,08,22,14,56,18.20
2009,08,22,14,57,18.20
2009,08,22,14,58,18.10
2009,08,22,14,59,18.20
2009,08,22,15,00,18.20
2009,08,22,15,01,18.30
2009,08,22,15,02,18.30
2009,08,22,15,03,18.40
2009,08,22,15,04,18.50
2009,08,22,15,05,18.60
2009,08,22,15,06,18.70
2009,08,22,15,07,18.80
2009,08,22,15,08,18.90
2009,08,22,15,09,18.90
2009,08,22,15,10,18.90
2009,08,22,15,11,19.00
2009,08,22,15,12,19.10
2009,08,22,15,13,19.10
2009,08,22,15,14,19.10
2009,08,22,15,15,19.10
2009,08,22,15,16,19.20
2009,08,22,15,17,19.20
2009,08,22,15,18,19.10
2009,08,22,15,19,19.10
2009,08,22,15,20,19.10
2009,08,22,15,21,19.10
2009,08,22,15,22,19.10
2009,08,22,15,23,19.00
2009,08,22,15,24,18.90
2009,08,22,15,25,18.70
2009,08,22,15,26,18.70
2009,08,22,15,27,18.70
2009,08,22,15,28,18.80
2009,08,22,15,29,18.90
2009,08,22,15,30,18.90
2009,08,22,15,31,18.90
2009,08,22,15,32,18.80
2009,08,22,15,33,18.80
2009,08,22,15,34,18.60
2009,08,22,15,35,18.60
2009,08,22,15,36,18.70
2009,08,22,15,37,18.70
2009,08,22,15,38,18.70
2009,08,22,15,39,18.80
2009,08,22,15,40,18.70
2009,08,22,15,41,18.60
2009,08,22,15,42,18.60
2009,08,22,15,43,18.50
2009,08,22,15,44,18.50
2009,08,22,15,45,18.50
2009,08,22,15,46,18.50
2009,08,22,15,47,18.40
2009,08,22,15,48,18.50
2009,08,22,15,49,18.50
2009,08,22,15,50,18.50
2009,08,22,15,51,18.40
2009,08,22,15,52,18.50
2009,08,22,15,53,18.50
2009,08,22,15,54,18.60
2009,08,22,15,55,18.70
2009,08,22,15,56,18.80
2009,08,22,15,57,18.90
2009,08,22,15,58,19.00
2009,08,22,15,59,19.10
2009,08,22,16,00,19.10
2009,08,22,16,01,19.20
2009,08,22,16,02,19.20
2009,08,22,16,03,19.20
2009,08,22,16,04,19.20
2009,08,22,16,05,19.10
2009,08,22,16,06,19.10
2009,08,22,16,07,19.10
2009,08,22,16,08,19.10
2009,08,22,16,09,19.10
2009,08,22,16,10,19.10
2009,08,22,16,11,19.10
2009,08,22,16,12,19.10
2009,08,22,16,13,19.10
2009,08,22,16,14,18.90
2009,08,22,16,15,18.90
2009,08,22,16,16,18.90
2009,08,22,16,17,18.80
2009,08,22,16,18,18.80
2009,08,22,16,19,18.90
2009,08,22,16,20,18.90
2009,08,22,16,21,18.90
2009,08,22,16,22,18.90
2009,08,22,16,23,18.90
2009,08,22,16,24,18.90
2009,08,22,16,25,18.90
2009,08,22,16,26,18.90
2009,08,22,16,27,19.00
2009,08,22,16,28,19.10
2009,08,22,16,29,19.20
2009,08,22,16,30,19.20
2009,08,22,16,31,19.20
2009,08,22,16,32,19.20
2009,08,22,16,33,19.30
2009,08,22,16,34,19.30
2009,08,22,16,35,19.30
2009,08,22,16,36,19.30
2009,08,22,16,37,19.30
2009,08,22,16,38,19.40
2009,08,22,16,39,19.40
2009,08,22,16,40,19.40
2009,08,22,16,41,19.40
2009,08,22,16,42,19.40
2009,08,22,16,43,19.40
2009,08,22,16,44,19.40
2009,08,22,16,45,19.40
2009,08,22,16,46,19.40
2009,08,22,16,47,19.50
2009,08,22,16,48,19.50
2009,08,22,16,49,19.60
2009,08,22,16,50,19.70
2009,08,22,16,51,19.70
2009,08,22,16,52,19.80
2009,08,22,16,53,19.70
2009,08,22,16,54,19.60
2009,08,22,16,55,19.50
2009,08,22,16,56,19.30
2009,08,22,16,57,19.10
2009,08,22,16,58,19.00
2009,08,22,16,59,18.90
2009,08,22,17,00,18.90
2009,08,22,17,01,18.90
2009,08,22,17,02,18.90
2009,08,22,17,03,18.90
2009,08,22,17,04,18.90
2009,08,22,17,05,19.00
2009,08,22,17,06,19.10
2009,08,22,17,07,19.10
2009,08,22,17,08,19.00
2009,08,22,17,09,18.90
2009,08,22,17,10,18.80
2009,08,22,17,11,18.70
2009,08,22,17,12,18.70
2009,08,22,17,13,18.70
2009,08,22,17,14,18.60
2009,08,22,17,15,18.60
2009,08,22,17,16,18.60
2009,08,22,17,17,18.50
2009,08,22,17,18,18.50
2009,08,22,17,19,18.40
2009,08,22,17,20,18.40
2009,08,22,17,21,18.40
2009,08,22,17,22,18.30
2009,08,22,17,23,18.30
2009,08,22,17,24,18.30
2009,08,22,17,25,18.40
2009,08,22,17,26,18.40
2009,08,22,17,27,18.40
2009,08,22,17,28,18.50
2009,08,22,17,29,18.50
2009,08,22,17,30,18.50
2009,08,22,17,31,18.50
2009,08,22,17,32,18.50
2009,08,22,17,33,18.50
2009,08,22,17,34,18.40
2009,08,22,17,35,18.30
2009,08,22,17,36,18.20
2009,08,22,17,37,18.20
2009,08,22,17,38,18.10
2009,08,22,17,39,18.00
2009,08,22,17,40,17.90
2009,08,22,17,41,17.90
2009,08,22,17,42,17.80
2009,08,22,17,43,17.80
2009,08,22,17,44,17.80
2009,08,22,17,45,17.80
2009,08,22,17,46,17.80
2009,08,22,17,47,17.90
2009,08,22,17,48,17.90
2009,08,22,17,49,17.80
2009,08,22,17,50,17.80
2009,08,22,17,51,17.80
2009,08,22,17,52,17.80
2009,08,22,17,53,17.80
2009,08,22,17,54,17.70
2009,08,22,17,55,17.70
2009,08,22,17,56,17.70
2009,08,22,17,57,17.70
2009,08,22,17,58,17.60
2009,08,22,17,59,17.60
2009,08,22,18,00,17.60
2009,08,22,18,01,17.60
2009,08,22,18,02,17.70
2009,08,22,18,03,17.70
2009,08,22,18,04,17.60
2009,08,22,18,05,17.50
2009,08,22,18,06,17.40
2009,08,22,18,07,17.30
2009,08,22,18,08,17.30
2009,08,22,18,09,17.30
2009,08,22,18,10,17.30
2009,08,22,18,11,17.30
2009,08,22,18,12,17.30
2009,08,22,18,13,17.30
2009,08,22,18,14,17.30
2009,08,22,18,15,17.30
2009,08,22,18,16,17.30
2009,08,22,18,17,17.30
2009,08,22,18,18,17.40
2009,08,22,18,19,17.40
2009,08,22,18,20,17.40
2009,08,22,18,21,17.40
2009,08,22,18,22,17.40
2009,08,22,18,23,17.50
2009,08,22,18,24,17.50
2009,08,22,18,25,17.50
2009,08,22,18,26,17.50
2009,08,22,18,27,17.60
2009,08,22,18,28,17.60
2009,08,22,18,29,17.70
2009,08,22,18,30,17.70
2009,08,22,18,31,17.60
2009,08,22,18,32,17.60
2009,08,22,18,33,17.60
2009,08,22,18,34,17.50
2009,08,22,18,35,17.40
2009,08,22,18,36,17.30
2009,08,22,18,37,17.30
2009,08,22,18,38,17.20
2009,08,22,18,39,17.20
2009,08,22,18,40,17.10
2009,08,22,18,41,17.10
2009,08,22,18,42,17.10
2009,08,22,18,43,17.10
2009,08,22,18,44,17.10
2009,08,22,18,45,17.10
2009,08,22,18,46,17.10
2009,08,22,18,47,17.10
2009,08,22,18,48,17.10
2009,08,22,18,49,17.10
2009,08,22,18,50,17.10
2009,08,22,18,51,17.10
2009,08,22,18,52,17.10
2009,08,22,18,53,17.10
2009,08,22,18,54,17.10
2009,08,22,18,55,17.10
2009,08,22,18,56,17.10
